AirNav   Air Wisconsin pilot careers
 
 545 users online  

82NM Skeen Ranch Airport
Picacho, New Mexico, USA

GOING TO PICACHO?


FAA INFORMATION EFFECTIVE 28 MARCH 2019

Location

FAA Identifier: 82NM
Lat/Long: 33-10-12.3470N / 105-08-01.9270W
33-10.205783N / 105-08.032117W
33.1700964 / -105.1338686
(estimated)
Elevation: 5524 ft. / 1684 m (estimated)
Variation: 10E (1985)
From city: 15 miles S of PICACHO, NM
Time zone: UTC -6 (UTC -7 during Standard Time)
Zip code: 88336

Airport Operations

Airport use: Private use. Permission required prior to landing
Activation date: 08/1961
Control tower: no
ARTCC: ALBUQUERQUE CENTER
FSS: ALBUQUERQUE FLIGHT SERVICE STATION
Attendance: CONTINUOUS
Wind indicator: yes
Segmented circle: no

Nearby radio navigation aids

VOR radial/distance  VOR name  Freq  Var
CMEr237/27.6CHISUM VORTAC116.1012E
PIOr001/39.4PINON VOR/DME110.4012E

 
NDB name  Hdg/Dist  Freq  Var  ID
CAPITAN135/23.527810ECEP -.-. . .--.
ARTESIA290/38.941409EATS .- - ...

Airport Services

Fuel available: MOGAS
Airframe service: NONE
Powerplant service: NONE

Runway Information

Runway 3/21

Dimensions: 3000 x 40 ft. / 914 x 12 m
Surface: dirt
RUNWAY 3  RUNWAY 21
Traffic pattern: leftleft

Airport Ownership and Management from official FAA records

Ownership: Privately-owned
Owner: JOSEPH R SKEEN
PO BOX 67
PICACHO, NM 88343
Phone 505-653-4084
Manager: MIKE L. SKEEN
PO BOX 67
PICACHO, NM 88343
Phone 505-653-4347

Airport Operational Statistics

Aircraft based on the field: 2
Single engine airplanes: 1
Ultralights: 1
    

Additional Remarks

A52-21 RDO ANT AND HOUSE N END. HILLS ALL APCHS. APCHS HAZARDOUS.
LIVESTOCK ON FIELD.

Instrument Procedures

There are no published instrument procedures at 82NM.

Some nearby airports with instrument procedures:

KSRR - Sierra Blanca Regional Airport (26 nm NW)
KROW - Roswell International Air Center Airport (31 nm E)
KATS - Artesia Municipal Airport (39 nm SE)
KALM - Alamogordo-White Sands Regional Airport (47 nm SW)
KHMN - Holloman Air Force Base (53 nm W)
 
Loc | Ops | Rwys | IFR | FBO | Links
Com | Nav | Svcs | Stats | Notes

Chandler Aviation LLC
 
Area around 82NM (Skeen Ranch Airport)
 
Road maps at: MapQuest Bing Google
 
Aerial photo
No photo
 
Sectional chart

 
Airport distance calculator
Flying to Skeen Ranch Airport? Find the distance to fly.

From to 82NM

Sunrise and sunset
Times for 23-Apr-2019
 Local
(UTC-6)
 Zulu
(UTC)
Morning civil twilight05:5611:56
Sunrise06:2212:22
Sunset19:3601:36
Evening civil twilight20:0202:02

Current date and time
Zulu (UTC)  23-Apr-2019 10:53:01
Local (UTC-6)  23-Apr-2019 04:53:01
 
METAR
KSRR 
26nm NW 
231035Z AUTO 00000KT 1SM BR OVC002 04/04 A3015 RMK AO2
KROW 
33nm E 
231017Z AUTO 36012KT 10SM OVC015 12/09 A3006 RMK AO2 T01220094
KATS 
39nm SE 
231035Z AUTO 34013G19KT 10SM BKN014 BKN030 BKN120 12/12 A3007 RMK AO2
KALM 
47nm SW 
231035Z AUTO 12005KT 10SM CLR 09/08 A3002 RMK AO2
TAF
KROW 
33nm E 
230544Z 2306/2406 31010KT 6SM -SHRA SCT035 BKN050 FM230800 36015KT P6SM VCSH OVC018 FM231500 01011KT P6SM OVC020 FM232100 02008KT P6SM VCSH BKN025
NOTAMs
Click for the latest NOTAMs
NOTAMs are issued by the DoD/FAA and will open in a separate window not controlled by AirNav.

 

 
 

Would you like to see your business listed on this page?

 If your business provides an interesting product or service to pilots, flight crews, aircraft, or users of the Skeen Ranch Airport, you should consider listing it here.  To start the listing process, click on the button below
 
Add a business
 

Other Pages about Skeen Ranch Airport

Update a link
 
Copyright © AirNav, LLC. All rights reserved. Privacy Policy  Contact